Location: Antoign�
(47.0844°N, 0.1131°W)
Time: 08:19:47
(UTC+00:00)

Cosmos 2360 Rocket - Pass Details

Date: 03 March 2021
Orbit: 832 x 846 km, 71.0° (Epoch: 11 April)

Event Time Altitude Azimuth Distance (km) Brightness Sun altitude
Rises 20:20:28 0° 232° (SW) 3,382 5.8 -26.2°
Reaches altitude 10° 20:23:05 10° 241° (WSW) 2,453 5.1 -26.6°
Maximum altitude 20:28:15 36° 308° (NW) 1,304 3.6 -27.5°
Drops below altitude 10° 20:33:29 10° 14° (NNE) 2,474 4.7 -28.3°
Sets 20:36:09 0° 23° (NNE) 3,415 5.4 -28.7°
